Location: Unspecified
(0.0000°N, 0.0000°E)
Time: 10:37:32
(UTC+00:00)

Explorer 11/Cluster Stage 4 - Pass Details

Date: 04 October 2020
Orbit: 467 x 1258 km, 28.8° (Epoch: 28 October)

Event Time Altitude Azimuth Distance (km) Brightness Sun altitude
Rises 16:29:34 0° 219° (SW) 2,968 10.2 19.7°
Reaches altitude 10° 16:32:39 10° 201° (SSW) 1,916 9.0 18.9°
Maximum altitude 16:35:48 19° 155° (SSE) 1,304 7.6 18.1°
Drops below altitude 10° 16:38:38 10° 107° (ESE) 1,700 7.8 17.4°
Sets 16:41:11 0° 88° (E) 2,521 8.6 16.8°
